Temperature
17 17 18 18 18 18 18 18 18 18 18 18 18 18 18 18 18 18 18 18 18 18 18 18 18 18 18 18 18 18 18 18 18 18 18 18 18 18 18 18 18 18 18
17 17 18 18 18 18 18 18 18 18 18 18 18 18 18 18 18 18 18 18 18 18 18 18 18 18 18 18 18 18 18 18 18 18 18 18 18 18 18 18 18 18 18
17 17 17 18 18 18 18 18 18 18 18 18 18 18 18 18 18 18 18 18 18 18 18 18 18 18 18 18 18 18 18 18 18 18 18 17 17 18 18 18 18 18 18
17 17 17 17 18 18 18 18 18 18 18 18 17 17 17 17 17 17 17 17 17 17 17 17 17 17 18 18 18 18 18 18 18 18 17 17 17 18 18 18 18 18 18
17 17 17 17 17 18 18 18 17 17 17 17 17 17 17 17 17 17 17 17 17 17 17 17 17 17 17 17 17 17 17 17 18 17 17 17 17 18 18 18 18 18 18
17 17 17 17 17 17 17 17 17 17 17 17 17 17 17 17 17 17 17 17 17 17 17 17 17 17 17 17 17 17 17 17 17 17 17 17 17 17 18 18 18 18 18
17 17 17 17 17 17 17 17 17 17 17 17 17 17 17 17 17 17 17 17 17 17 17 17 17 17 17 17 17 17 17 17 17 16 16 17 17 17 17 17 17 17 17
17 17 17 17 17 17 17 17 17 17 16 16 16 16 16 16 16 16 16 17 17 17 17 17 17 17 17 17 17 17 17 17 16 16 16 17 17 17 17 17 17 17 17
17 17 17 17 17 17 17 17 17 16 16 16 16 16 16 16 16 16 16 16 16 16 16 16 16 17 17 17 17 17 17 17 16 16 16 16 17 17 17 17 17 17 17
17 17 17 17 16 16 16 16 16 16 16 16 16 16 16 16 16 16 16 16 16 16 16 16 16 16 16 16 17 17 17 16 16 16 16 16 17 17 17 17 17 17 17
16 17 17 17 16 16 16 16 16 16 16 16 16 16 16 16 16 16 16 16 16 16 16 16 16 16 16 16 16 16 16 16 16 16 16 16 16 16 16 17 17 17 17
17 16 16 17 16 16 16 16 16 16 16 16 16 16 16 16 16 16 16 16 16 16 16 16 16 16 16 16 16 16 16 16 16 16 16 16 16 16 16 16 17 16 16
17 16 16 16 16 16 16 16 16 16 16 16 16 16 16 16 16 16 16 16 16 16 16 16 16 16 16 16 16 16 16 16 16 16 16 16 16 16 16 16 16 16 16
16 16 16 16 16 16 16 16 16 16 16 16 16 16 16 16 16 16 16 16 16 16 16 16 16 16 16 16 16 16 16 16 15 15 15 16 16 16 16 16 16 16 16
17 16 16 16 16 17 16 16 16 16 16 16 16 16 16 16 16 16 16 16 16 16 16 16 16 16 16 16 16 16 16 16 15 15 15 16 16 16 16 16 16 16 16
17 17 16 16 16 16 17 16 16 16 16 16 16 16 16 16 16 16 16 16 16 16 16 16 16 16 16 16 15 15 15 15 15 15 15 15 15 15 15 15 15 15 15
17 17 16 16 16 16 16 16 16 16 16 16 16 16 16 16 16 16 16 16 16 16 16 16 16 15 15 15 15 15 15 15 15 15 15 15 15 15 15 15 15 15 15
17 17 16 16 16 16 16 16 16 16 16 16 16 16 16 16 16 16 16 16 16 16 16 15 15 15 15 15 15 15 15 15 15 15 15 15 15 15 15 15 15 15 15
17 17 16 16 16 16 16 16 16 16 16 16 16 16 16 16 16 16 16 16 16 15 15 15 15 15 15 15 15 15 15 15 14 14 15 15 14 14 14 15 15 15 15
17 17 16 16 16 16 16 16 16 16 16 16 16 15 16 16 16 16 15 15 15 15 15 15 15 15 15 15 15 15 15 14 14 14 14 14 14 14 14 14 14 14 15
17 17 16 16 16 16 16 16 16 16 16 15 15 15 15 15 15 15 15 15 15 15 15 15 15 15 15 15 15 15 15 15 14 14 14 14 14 14 14 14 14 14 14
17 17 16 16 16 16 16 16 16 16 15 15 15 15 15 15 15 15 15 15 15 15 15 15 15 15 15 15 15 15 15 15 14 14 14 14 14 14 14 14 14 14 14
17 17 16 16 16 16 16 16 16 15 15 15 15 15 15 15 15 15 15 15 15 15 15 15 15 15 15 15 15 15 16 16 15 14 14 14 14 14 14 14 13 13 13
17 17 16 16 16 16 16 16 16 16 16 15 15 15 15 15 15 15 15 15 15 15 15 15 15 15 15 15 15 15 15 15 15 15 14 14 14 14 13 13 13 13 13
17 17 17 16 16 16 16 16 15 15 15 15 15 15 15 15 15 15 15 15 15 15 15 15 15 15 15 15 15 15 14 15 15 15 15 14 14 13 13 13 13 13 13
17 17 16 16 16 16 16 16 15 15 15 15 15 15 15 15 15 15 15 15 15 15 15 15 15 15 14 14 14 15 15 15 15 15 15 14 14 13 13 13 13 13 13
Wind_Speed
5 7 8 8 9 10 10 10 11 11 12 12 12 11 11 10 11 11 11 11 11 11 11 11 10 10 10 10 10 10 10 10 10 10 10 10 10 10 9 7 5 8 9
7 8 9 9 10 10 10 10 11 11 11 11 12 11 11 10 11 11 11 11 11 11 10 10 10 10 10 9 9 9 9 9 9 8 7 9 10 10 9 9 8 8 8
8 9 10 10 9 9 10 10 10 11 11 11 11 11 11 10 11 11 11 11 10 10 10 10 10 10 10 9 9 9 9 9 8 6 2 6 10 10 9 9 9 8 8
8 8 10 10 9 9 9 10 10 10 11 11 11 11 11 10 11 11 11 10 10 10 10 10 10 9 9 9 9 9 9 8 7 1 4 7 8 11 9 8 8 8 8
8 9 10 10 10 9 9 9 10 10 10 10 11 11 11 10 10 11 11 10 10 10 10 10 9 9 9 8 8 9 8 7 4 4 7 7 8 9 9 8 8 8 8
8 9 11 9 10 9 9 9 9 10 10 10 11 11 10 10 10 11 11 10 10 10 10 9 9 9 8 8 8 8 7 4 2 7 7 7 7 8 8 8 8 8 7
8 9 11 9 9 9 9 9 9 9 9 9 10 10 10 10 10 10 10 10 10 10 10 9 9 9 8 8 9 8 7 3 5 6 6 7 8 8 7 7 7 7 7
8 9 10 9 9 9 9 9 9 9 9 9 9 10 9 9 10 10 10 10 9 9 9 9 9 9 9 9 9 9 7 4 5 5 6 7 9 7 7 7 7 7 7
8 8 8 8 9 10 9 9 9 9 8 9 8 9 9 9 9 9 9 9 9 8 8 8 9 9 9 9 9 9 7 5 4 5 6 7 8 7 7 7 7 7 7
8 7 7 7 7 8 10 10 8 8 8 8 8 8 8 9 9 8 8 9 8 7 7 8 8 9 9 9 9 7 3 1 6 5 6 8 8 7 6 6 6 7 7
7 6 6 6 6 7 8 9 8 8 7 7 8 7 5 6 7 7 11 9 8 7 7 8 8 8 8 9 8 4 1 5 6 6 8 9 8 7 6 6 6 6 6
7 6 5 5 6 6 6 6 5 6 6 6 6 5 5 6 6 7 9 8 7 6 7 7 6 6 3 6 6 2 4 6 5 7 9 11 9 8 7 6 6 5 5
7 6 5 5 5 5 5 5 4 4 4 5 5 5 5 5 5 5 5 6 5 4 5 6 4 5 5 5 4 5 6 5 6 7 10 11 11 10 8 7 7 6 5
7 6 5 4 4 5 5 5 4 4 4 4 4 4 4 4 3 4 4 4 4 4 4 3 3 5 5 5 5 6 7 6 6 6 10 12 11 10 9 8 8 7 6
6 6 5 4 4 4 4 3 4 4 3 4 4 3 4 4 3 4 4 3 3 4 3 3 3 4 4 5 6 6 6 7 7 7 8 11 11 11 10 9 9 8 7
6 6 6 5 5 4 4 4 4 4 4 4 4 4 4 4 3 3 3 3 3 3 3 2 4 4 4 4 5 5 5 6 7 6 6 8 10 11 11 11 10 10 9
6 6 6 5 5 4 4 4 3 3 4 4 4 4 4 4 3 3 2 3 3 3 3 3 4 4 4 4 4 4 5 5 6 7 7 6 7 10 11 11 10 10 10
6 6 6 5 5 5 4 4 3 4 4 3 3 3 3 3 3 3 2 2 2 2 3 3 3 3 4 3 3 3 4 4 5 6 6 6 6 6 9 11 11 12 11
6 6 6 6 5 5 4 4 4 4 3 3 3 3 3 3 3 3 3 2 3 3 2 3 3 3 4 3 3 3 4 4 4 5 6 7 7 7 7 9 10 12 13
6 6 6 6 5 5 4 4 3 3 3 3 3 3 3 3 3 3 3 3 3 3 2 2 4 3 3 2 3 4 4 4 4 5 5 6 6 7 8 7 7 9 12
7 7 7 7 6 5 4 3 3 2 2 2 3 3 3 3 3 3 2 2 2 2 2 3 3 4 3 2 2 3 4 4 4 3 4 4 5 6 7 7 7 7 7
9 8 8 7 6 6 4 4 3 3 2 2 2 3 3 3 3 2 2 2 2 2 2 3 2 2 2 1 0 1 2 3 2 3 3 3 4 4 5 7 7 7 7
9 9 7 8 7 7 6 4 4 3 3 3 3 2 2 2 2 2 2 2 2 2 2 2 2 2 1 1 2 2 1 1 2 2 3 3 3 3 4 5 6 7 7
9 9 9 8 8 7 7 6 7 5 4 3 3 3 3 3 3 2 2 2 2 2 3 2 2 1 1 1 1 2 2 2 1 1 2 3 3 3 4 4 5 6 7
9 8 8 9 8 7 7 7 7 5 4 3 3 4 4 3 3 3 3 2 2 2 2 2 1 0 1 1 0 1 1 1 1 1 1 1 2 3 3 4 4 5 6
8 8 8 9 8 8 7 7 7 6 5 5 4 4 3 3 3 3 3 2 2 2 2 2 1 1 0 1 1 0 1 1 1 1 1 1 1 2 3 3 3 4 5
Wind_Direction
124 116 108 110 110 107 102 99 101 103 107 112 109 107 106 106 103 98 94 94 92 89 86 84 83 82 80 78 76 75 74 74 74 75 77 76 74 73 72 72 77 89 82
125 120 117 116 110 106 102 99 100 103 106 107 108 107 105 104 101 97 94 94 93 89 85 82 81 80 79 77 75 74 76 75 74 75 83 91 79 73 71 67 52 70 79
122 122 125 117 111 105 102 101 101 104 105 105 105 105 105 103 100 97 96 94 92 90 86 83 82 81 80 77 74 73 74 75 75 76 93 89 88 75 70 70 70 75 77
120 120 116 116 111 104 99 99 103 105 105 104 103 102 102 102 100 98 96 94 90 88 85 82 82 82 80 76 74 73 75 75 71 42 76 69 77 76 66 65 68 72 75
119 118 117 120 116 110 106 102 102 104 105 103 103 100 97 97 98 97 94 93 88 85 83 80 79 80 81 79 76 75 78 79 76 56 64 64 68 72 65 60 63 67 71
121 118 114 120 119 115 113 108 104 101 104 104 103 101 97 95 95 93 90 89 86 82 79 77 77 80 80 80 78 75 75 72 92 67 63 64 68 69 63 59 59 60 63
120 117 116 115 119 118 115 110 106 103 103 103 100 98 96 93 92 91 87 85 83 79 75 73 75 79 78 77 76 73 70 35 66 72 66 64 64 60 58 57 58 60 61
115 112 112 114 115 112 109 108 105 103 103 100 97 97 95 91 89 88 84 83 80 76 73 73 73 75 77 78 77 74 57 2 83 71 68 66 59 55 57 60 58 59 59
114 110 110 113 120 123 114 106 102 99 97 94 93 94 93 88 88 88 87 83 82 79 77 76 75 77 79 80 77 74 62 23 56 62 66 62 57 53 58 59 58 57 56
115 114 112 109 115 123 120 110 102 100 100 97 91 91 98 106 103 101 99 83 82 82 79 79 81 83 86 83 78 75 63 333 58 62 57 62 53 51 55 57 58 57 55
114 113 112 113 110 115 113 117 117 112 107 119 113 111 130 116 110 110 80 78 77 77 77 80 87 92 97 95 86 84 33 65 63 57 53 49 44 47 53 56 58 57 53
124 117 114 113 117 119 117 119 116 109 106 104 100 107 113 108 98 95 103 91 85 88 97 90 105 128 123 99 107 146 73 69 62 64 60 48 44 45 51 55 57 56 53
129 125 124 122 117 117 120 116 104 97 101 108 109 114 117 113 114 105 105 115 108 120 100 109 128 88 82 75 70 71 59 55 58 57 60 50 45 45 49 55 52 49 51
132 129 129 126 126 125 123 116 114 106 106 108 120 113 117 109 100 95 98 88 90 86 81 86 79 91 83 79 73 71 68 61 63 62 61 50 43 41 44 49 46 41 47
138 140 138 141 133 122 112 122 125 112 105 110 113 126 115 112 103 105 101 93 77 79 95 91 93 88 81 71 64 65 64 61 62 60 66 58 47 40 39 42 42 39 44
149 149 146 148 132 130 132 131 112 112 118 119 120 119 116 106 102 102 99 87 76 74 80 97 93 92 83 80 72 66 61 61 59 61 60 69 60 46 40 39 40 42 45
155 155 149 145 135 130 122 103 101 109 111 111 117 119 111 99 96 92 87 96 91 93 105 96 93 96 99 96 85 73 67 56 57 55 53 51 60 61 51 45 41 43 48
162 160 154 153 150 137 122 115 106 103 103 109 122 118 104 102 97 89 86 93 99 103 106 105 106 105 100 91 82 77 78 70 61 55 51 50 43 47 64 57 47 45 45
170 164 162 157 154 145 133 125 110 109 109 112 118 110 104 101 104 103 88 101 120 113 106 112 105 102 99 87 85 78 73 68 61 54 47 45 43 40 53 70 64 52 46
174 168 164 156 159 148 144 140 122 104 108 107 110 111 97 100 105 114 125 125 113 112 113 116 109 97 102 108 95 84 75 72 63 52 45 45 39 42 44 47 57 63 58
178 175 170 168 162 156 151 153 140 128 123 114 108 110 112 109 106 109 122 114 113 112 123 129 121 122 118 114 113 108 97 78 69 60 49 45 43 41 44 46 43 40 57
185 184 180 177 173 170 164 156 145 137 127 114 112 108 109 108 112 114 121 125 131 121 124 122 136 130 111 93 309 175 144 124 81 60 59 45 34 44 41 39 42 45 38
188 188 187 184 179 175 170 159 149 142 146 141 140 126 108 107 112 112 103 123 126 133 123 134 147 150 126 79 5 340 347 57 91 75 53 47 32 25 33 37 38 41 41
191 191 191 186 183 175 172 175 174 177 165 151 144 135 132 123 117 116 112 122 129 121 133 150 143 137 150 139 88 10 8 21 340 100 88 55 41 31 28 30 34 37 40
189 190 191 187 182 176 179 176 183 179 166 149 145 141 142 125 119 123 119 121 121 124 129 126 135 159 201 288 355 60 51 26 301 336 27 36 55 44 35 35 39 36 37
180 182 186 186 179 175 177 178 182 171 166 160 160 150 149 135 127 124 126 125 122 120 121 121 127 123 51 12 336 8 344 341 349 357 354 39 46 50 40 38 34 36 35
Height
1540 1540 1540 1542 1542 1543 1544 1545 1545 1545 1546 1546 1546 1547 1547 1548 1548 1548 1549 1549 1549 1549 1549 1550 1550 1550 1550 1550 1550 1549 1549 1549 1549 1548 1548 1548 1548 1548 1548 1547 1548 1548 1547
1541 1541 1541 1543 1544 1545 1545 1546 1546 1547 1547 1547 1548 1548 1548 1549 1549 1550 1550 1550 1551 1551 1551 1551 1551 1551 1551 1551 1551 1551 1550 1550 1550 1550 1550 1550 1550 1549 1549 1549 1549 1549 1549
1541 1542 1543 1543 1544 1545 1546 1547 1547 1548 1548 1549 1549 1549 1550 1550 1550 1551 1551 1552 1552 1552 1552 1552 1552 1552 1552 1552 1552 1552 1552 1552 1552 1552 1552 1553 1552 1551 1550 1550 1550 1550 1550
1542 1543 1544 1544 1545 1547 1547 1548 1549 1549 1550 1550 1550 1550 1551 1551 1552 1552 1552 1553 1553 1553 1553 1553 1553 1553 1553 1553 1553 1553 1553 1553 1553 1553 1555 1554 1554 1552 1552 1552 1551 1551 1551
1543 1544 1545 1546 1547 1548 1548 1549 1550 1550 1551 1551 1551 1552 1552 1552 1553 1554 1554 1554 1554 1555 1555 1555 1555 1555 1554 1554 1554 1555 1555 1555 1555 1555 1555 1554 1554 1553 1553 1553 1553 1552 1552
1544 1546 1546 1547 1548 1549 1550 1550 1551 1552 1552 1552 1553 1553 1553 1554 1554 1555 1555 1555 1556 1556 1556 1556 1556 1556 1556 1555 1556 1556 1556 1556 1557 1557 1556 1556 1555 1554 1554 1554 1554 1553 1553
1546 1547 1548 1548 1549 1550 1551 1552 1552 1553 1553 1554 1554 1555 1555 1555 1555 1556 1556 1557 1557 1557 1557 1557 1557 1557 1557 1557 1557 1557 1557 1557 1558 1558 1558 1557 1556 1555 1555 1555 1555 1554 1554
1547 1548 1549 1549 1550 1551 1552 1553 1554 1554 1555 1555 1556 1556 1556 1557 1557 1557 1558 1558 1558 1559 1559 1559 1559 1558 1558 1558 1558 1558 1558 1559 1560 1560 1559 1558 1557 1556 1556 1556 1555 1555 1555
1548 1549 1550 1551 1552 1553 1553 1554 1555 1555 1556 1556 1557 1557 1558 1558 1558 1559 1559 1560 1560 1560 1560 1560 1560 1560 1559 1559 1559 1559 1559 1559 1561 1561 1561 1559 1558 1557 1557 1556 1556 1555 1555
1549 1551 1552 1553 1554 1555 1556 1555 1556 1557 1557 1558 1558 1559 1559 1560 1560 1560 1561 1561 1561 1562 1562 1562 1562 1561 1561 1561 1561 1561 1561 1561 1562 1562 1561 1560 1558 1558 1557 1557 1556 1556 1555
1550 1552 1553 1554 1555 1556 1557 1557 1558 1558 1559 1560 1560 1560 1561 1563 1563 1563 1563 1563 1563 1563 1563 1563 1563 1563 1563 1563 1562 1562 1562 1563 1563 1562 1561 1560 1559 1558 1558 1557 1557 1556 1556
1551 1553 1554 1555 1555 1557 1558 1559 1560 1561 1561 1562 1562 1562 1563 1564 1564 1564 1564 1564 1565 1565 1565 1565 1565 1565 1565 1565 1564 1564 1565 1564 1564 1564 1562 1560 1560 1559 1558 1557 1557 1556 1556
1552 1553 1555 1555 1557 1558 1559 1560 1561 1562 1562 1563 1563 1564 1564 1565 1566 1567 1567 1567 1567 1567 1567 1567 1567 1567 1567 1567 1566 1566 1566 1566 1565 1564 1563 1561 1560 1559 1558 1558 1557 1556 1556
1554 1555 1556 1557 1558 1559 1561 1562 1562 1563 1563 1564 1565 1565 1566 1567 1568 1568 1568 1568 1568 1568 1568 1568 1568 1569 1568 1568 1568 1568 1567 1566 1566 1565 1563 1562 1561 1560 1559 1558 1557 1556 1556
1555 1556 1557 1558 1559 1560 1561 1562 1564 1564 1565 1566 1566 1567 1568 1568 1569 1569 1569 1569 1570 1570 1569 1569 1570 1569 1569 1569 1569 1569 1568 1568 1567 1566 1564 1563 1562 1560 1559 1558 1557 1556 1556
1556 1557 1558 1559 1560 1562 1563 1564 1564 1565 1566 1567 1567 1568 1569 1570 1570 1570 1571 1570 1571 1571 1570 1570 1571 1570 1570 1570 1570 1569 1569 1569 1568 1567 1566 1564 1562 1560 1559 1558 1557 1556 1556
1556 1558 1559 1560 1562 1563 1564 1564 1565 1566 1567 1568 1568 1569 1570 1570 1571 1571 1572 1571 1571 1571 1571 1571 1571 1571 1571 1571 1571 1570 1570 1569 1569 1568 1567 1565 1563 1561 1559 1558 1557 1557 1556
1557 1558 1560 1561 1562 1563 1564 1565 1566 1567 1568 1568 1569 1570 1571 1571 1572 1572 1572 1572 1572 1572 1572 1572 1572 1572 1572 1572 1572 1571 1571 1570 1570 1569 1568 1566 1564 1562 1560 1559 1558 1558 1557
1557 1558 1560 1561 1563 1564 1564 1565 1566 1567 1568 1569 1570 1570 1571 1572 1572 1572 1572 1572 1573 1573 1573 1573 1573 1573 1573 1573 1573 1572 1572 1571 1570 1570 1569 1568 1566 1564 1562 1561 1560 1559 1558
1557 1558 1560 1561 1562 1564 1565 1566 1566 1567 1568 1569 1570 1570 1571 1572 1572 1573 1573 1573 1574 1574 1573 1574 1573 1573 1573 1573 1573 1573 1573 1572 1571 1571 1570 1568 1567 1565 1564 1563 1562 1560 1559
1556 1558 1559 1561 1562 1563 1564 1566 1567 1568 1569 1569 1570 1570 1571 1572 1572 1573 1574 1574 1574 1574 1574 1574 1574 1574 1574 1574 1574 1574 1573 1573 1572 1571 1571 1569 1568 1566 1565 1564 1563 1561 1560
1555 1557 1558 1560 1561 1563 1564 1565 1566 1568 1569 1569 1570 1570 1571 1572 1573 1573 1574 1574 1574 1574 1574 1574 1574 1575 1575 1575 1575 1574 1574 1575 1573 1572 1571 1570 1569 1568 1567 1565 1564 1562 1561
1553 1555 1557 1559 1560 1562 1563 1565 1566 1567 1568 1570 1570 1570 1571 1572 1572 1573 1574 1574 1574 1575 1575 1575 1575 1575 1575 1575 1575 1575 1575 1574 1574 1574 1572 1571 1570 1569 1568 1566 1565 1564 1562
1552 1554 1556 1558 1559 1561 1562 1564 1565 1567 1569 1569 1570 1571 1571 1572 1572 1573 1574 1574 1575 1575 1575 1575 1576 1575 1575 1575 1575 1574 1575 1574 1574 1574 1573 1572 1571 1569 1568 1567 1566 1564 1563
1550 1552 1554 1556 1558 1560 1561 1563 1565 1566 1568 1569 1570 1571 1572 1572 1572 1573 1574 1574 1575 1575 1575 1575 1576 1575 1575 1575 1575 1575 1574 1574 1574 1574 1573 1573 1572 1570 1568 1567 1566 1564 1563
1548 1550 1552 1555 1557 1558 1560 1562 1564 1565 1567 1568 1569 1570 1571 1572 1572 1573 1574 1574 1575 1575 1576 1575 1575 1575 1575 1575 1575 1575 1575 1575 1574 1574 1573 1572 1571 1570 1568 1567 1566 1564 1562